Regional Weather Roundup
Issued by NWS

Home | Current Version | Previous Version | Graphics & Text | Print | Product List | Glossary Off
Versions: 1 2 3 4 5 6 7 8 9 10 11 12 13 14 15 16 17 18 19 20 21 22 23 24 25 26 27 28 29 30 31 32 33 34 35 36 37 38 39 40 41 42 43 44 45 46 47 48 49 50

000
ASUS43 KMKX 271611
RWRWI

WISCONSIN REGIONAL WEATHER ROUNDUP
NATIONAL WEATHER SERVICE MILWAUKEE/SULLIVAN WI
1100 AM CDT WED AUG 27 2014

NOTE: "FAIR" INDICATES FEW OR NO CLOUDS BELOW 12,000 FEET WITH NO
SIGNIFICANT WEATHER AND/OR OBSTRUCTIONS TO VISIBILITY.

WIZ001-002-006>008-014>016-023>028-271700-
NORTHWEST WISCONSIN

CITY           SKY/WX    TMP DP  RH WIND       PRES   REMARKS
SUPERIOR ARPT  MOSUNNY   65  53  65 CALM      30.23S
ASHLAND        PTSUNNY   63  50  62 NW6       30.23S
HAYWARD        MOSUNNY   63  49  60 VRB5      30.23S
SIREN          MOSUNNY   66  51  59 E7        30.23F
RICE LAKE      MOSUNNY   65  52  61 N7        30.25R
LADYSMITH      SUNNY     64  51  61 N9        30.24F
EAU CLAIRE     MOSUNNY   68  53  58 NE7       30.22R
MENOMONIE      MOSUNNY   68  52  57 E6        30.23S
NEW RICHMOND   MOSUNNY   67  52  58 E3        30.24S
OSCEOLA        SUNNY     67  53  59 SE3       30.25S
$$

WIZ003>005-009-010-017-018-271700-
NORTH CENTRAL WISCONSIN

CITY           SKY/WX    TMP DP  RH WIND       PRES   REMARKS
WOODRUFF       MOSUNNY   62  49  63 N3        30.22S
RHINELANDER    MOSUNNY   62  51  67 CALM      30.23R
EAGLE RIVER    PTSUNNY   59  48  67 CALM      30.22S
LAND O LAKES   CLOUDY    60  49  65 W5        30.23S
PHILLIPS       MOSUNNY   61  50  65 NE5       30.23S
TOMAHAWK       MOSUNNY   62  50  66 W6        30.23R
MEDFORD        SUNNY     63  48  59 N3        30.23R
MERRILL        MOSUNNY   63  53  69 NW6       30.21S
$$

WIZ029-030-035-036-043>047-271700-
CENTRAL WISCONSIN

CITY           SKY/WX    TMP DP  RH WIND       PRES   REMARKS
WAUSAU           N/A     68  53  58 NW5       30.20R
MOSINEE        CLOUDY    66  54  63 CALM      30.23R
MARSHFIELD     SUNNY     68  53  58 VRB3      30.22R
STEVENS POINT  MOSUNNY   66  51  57 NW6       30.22S
WAUPACA        MOSUNNY   71  54  55 CALM      30.21S
WAUTOMA        SUNNY     70  54  56 CALM      30.21S
WISC RAPIDS    PTSUNNY   70  54  56 NW7       30.22S
CAMP DOUGLAS   MOSUNNY   70  55  60 VRB2      30.22R
$$

WIZ011>013-019>022-031-037>040-048>050-271700-
NORTHEAST WISCONSIN

CITY           SKY/WX    TMP DP  RH WIND       PRES   REMARKS
ANTIGO         MOSUNNY   64  53  66 NW3       30.21S
STURGEON BAY   PTSUNNY   66  55  68 N8        30.20F
GREEN BAY      SUNNY     69  54  58 CALM      30.20R
MANITOWOC      PTSUNNY   68  59  73 SE6       30.20S
APPLETON       MOSUNNY   68  52  56 CALM      30.21S
CLINTONVILLE   SUNNY     68  52  56 SW5       30.20S
OSHKOSH        SUNNY     69  56  62 E6        30.20S
$$

WIZ032>034-041-042-053>061-271700-
SOUTHWEST WISCONSIN

CITY           SKY/WX    TMP DP  RH WIND       PRES   REMARKS
LA CROSSE      PTSUNNY   73  56  54 VRB5      30.21R
SPARTA         MOSUNNY   71  53  52 CALM      30.22S
VIROQUA        FAIR      70  56  59 N5        30.22S
BOSCOBEL       SUNNY     74  55  51 NE5       30.20S
PRAIRIE DU CHI MOSUNNY   71  54  54 NE3       30.19S
PLATTEVILLE    FAIR      72  59  64 CALM      30.21R
$$

WIZ056-057-062-063-064-067-068-271700-
SOUTH CENTRAL WISCONSIN

CITY           SKY/WX    TMP DP  RH WIND       PRES   REMARKS
BARABOO/DELLS  SUNNY     69  54  57 CALM      30.21R
LONE ROCK      MOSUNNY   75  58  55 CALM      30.20R
WATERTOWN      MOSUNNY   71  61  69 CALM      30.18R
MADISON        PTSUNNY   73  58  59 VRB3      30.19R
MIDDLETON      FAIR      72  56  57 CALM      30.20R
MONROE         SUNNY     70  59  68 N3        30.19S
JANESVILLE     SUNNY     73  57  56 VRB5      30.17R
$$

WIZ051-052-058>065-066-070>072-271700-
SOUTHEAST WISCONSIN

CITY           SKY/WX    TMP DP  RH WIND       PRES   REMARKS
MILWAUKEE      MOSUNNY   71  63  75 NE12      30.17R
WAUKESHA       MOSUNNY   70  57  64 CALM      30.19R
MILWAUKEE/TIMM MOSUNNY   70  57  64 N5        30.18S
RACINE         MOSUNNY   73  63  70 NE8       30.18S
BURLINGTON     SUNNY     71  59  64 CALM      30.17S
KENOSHA        MOSUNNY   74  64  71 VRB5      30.17R
FOND DU LAC    SUNNY     70  59  68 N8        30.20S
SHEBOYGAN      SUNNY     70  58  65 NE7       30.19S
WEST BEND      PTSUNNY   70  57  64 E6        30.19R
JUNEAU         MOSUNNY   69  60  72 NE5       30.21R
$$

LSZ147-162-271700-
LAKE SUPERIOR

STATION/POSITION TIME  TEMP    WIND        PRES    WAVE
                       AIR SEA DIR/SP/G            HT/PER
                 (UTC) (F)     (DEG/KT/KT) (MB)    (FT/S)
W MID LAKE BUOY  1550   56 56  260/  6/  8 1023.0R   0
DEVILS ISLAND    1600   60     270/  4/  5 1023.6R
PORT WING        1500   60     340/  3/  4 1023.7R
SAXON HARBOR     1500   62     330/  4/  6 1023.7R
$$

LMZ867-665-643>646-271700-
LAKE MICHIGAN

STATION/POSITION TIME  TEMP    WIND        PRES    WAVE
                       AIR SEA DIR/SP/G            HT/PER
                 (UTC) (F)     (DEG/KT/KT) (MB)    (FT/S)
N MID LAKE BUOY  1550   60 65  340/  6/  8 1022.6R   1
NORTHPORT PIER   1500   63     330/  5/  6 1022.7R
SISTER BAY       1511   67     360/  8/  9   N/A
ALGOMA LAKESHORE 1353             CALM       N/A
KEWAUNEE LAKESHO 1500   65     110/  2/  3 1021.8R
SHEBOYGAN LAKESH 1600   65 66   30/  8/  9 1022.5F
ATWATER BUOY     1600   68      10/  8/ 12 1022.8R
MILWAUKEE LAKESH 1500   66      30/  9/ 11   N/A
S MID LAKE BUOY  1550   68 69   50/  6/  6 1021.5R   0
KENOSHA   LAKESH 1600   68      40/  8/  8 1021.0R
$$

TC  - TEMPERATURE IN CELSIUS
VSB - VISIBILITY IN STATUTE MILES
WCI - WIND CHILL INDEX
HX  - HEAT INDEX



USA.gov is the U.S. government's official web portal to all federal, state and local government web resources and services.